Weather History for KCMA - August, 2013

Change the Weather History Date:

Sunday, August 25, 2013

  Actual Average Record
Temperature  
Mean Temperature 67 °F 68 °F  
Max Temperature 78 °F 77 °F 84 °F (2011)
Min Temperature 55 °F 59 °F 48 °F (1949)
Degree Days  
Heating Degree Days 0 0  
Month to date heating degree days 1 0  
Since 1 June heating degree days 3 53  
Since 1 July heating degree days 3 10  
Cooling Degree Days 2 3  
Month to date cooling degree days 49 75  
Year to date cooling degree days 418 200  
Since 1 June cooling degree days 312 169  
Growing Degree Days 16 (Base 50)    
Moisture  
Dew Point 57 °F    
Average Humidity 75    
Maximum Humidity 100    
Minimum Humidity 50    
Precipitation  
Precipitation 0.00 in 0.00 in 0.00 in (2015)
Month to date precipitation 0.00 0.03  
Year to date precipitation 2.19 11.03  
Since 1 July precipitation 0.04  
Sea Level Pressure  
Sea Level Pressure 29.90 in    
Wind  
Wind Speed 4 mph (West)    
Max Wind Speed 10 mph    
Max Gust Speed 15 mph    
Visibility 5 miles    
Events Fog    
T = Trace of Precipitation, MM = Missing Value Source: NWS Daily Summary

Daily Weather History Graph

Daily Weather History Graph

Search for Another Location

Airport or City:

Trip Planner

Search our weather history database for the weather conditions in past years. The results will help you decide how hot, cold, wet, or windy it might be!

Date:

Astronomy

Aug. 25, 2013 Rise Set
Actual Time 6:25 AM PDT 7:31 PM PDT
Civil Twilight 5:59 AM PDT 7:56 PM PDT
Nautical Twilight 5:28 AM PDT 8:27 PM PDT
Astronomical Twilight 4:56 AM PDT 8:59 PM PDT
Moon 10:22 PM PDT (8/25) 11:15 AM PDT (8/25)
Length of Visible Light 13h 57m
Length of Day
13h 05m
Waning Gibbous, 75% of the Moon is Illuminated
Aug 25
Waning Gibbous
Aug 28
Last Quarter
Sep 5
New
Sep 12
First Quarter
Sep 19
Full

Hourly Weather History & Observations

Time (PDT) Temp. Dew Point Humidity Pressure Visibility Wind Dir Wind Speed Gust Speed Precip Events Conditions
12:03 AM 59.0 °F 57.2 °F 94% 29.87 in 1.5 mi WNW 4.6 mph - N/A   Overcast
12:12 AM 59.0 °F 57.2 °F 94% 29.87 in 2.0 mi WNW 5.8 mph - N/A   Overcast
12:20 AM 59.0 °F 57.2 °F 94% 29.87 in 1.5 mi WNW 5.8 mph - N/A   Overcast
12:32 AM 59.0 °F 57.2 °F 94% 29.87 in 2.0 mi WNW 5.8 mph - N/A   Overcast
12:42 AM 59.0 °F 57.2 °F 94% 29.88 in 1.5 mi WNW 4.6 mph - N/A   Overcast
12:55 AM 59.0 °F 57.9 °F 96% 29.90 in 1.0 mi NW 3.5 mph - N/A   Overcast
1:02 AM 60.8 °F 57.2 °F 88% 29.87 in 0.5 mi NNW 4.6 mph - N/A Fog Fog
1:55 AM 59.0 °F 57.9 °F 96% 29.89 in 0.2 mi Calm Calm - N/A Fog Fog
2:55 AM 57.9 °F 57.9 °F 100% 29.88 in 0.2 mi Calm Calm - N/A Fog Fog
3:55 AM 59.0 °F 57.9 °F 96% 29.90 in 0.5 mi Calm Calm - N/A Fog Fog
4:55 AM 57.9 °F 57.0 °F 97% 29.90 in 0.2 mi NNE 4.6 mph - N/A Fog Fog
5:55 AM 57.0 °F 55.9 °F 96% 29.90 in 0.5 mi NW 3.5 mph - N/A Fog Fog
6:55 AM 55.0 °F 54.0 °F 96% 29.91 in 0.2 mi NNE 3.5 mph - 0.01 in Fog Fog
7:55 AM 55.9 °F 55.9 °F 100% 29.92 in 0.2 mi Calm Calm - N/A Fog Fog
8:31 AM 57.2 °F 55.4 °F 94% 29.90 in 1.8 mi Calm Calm - N/A   Overcast
8:33 AM 57.2 °F 55.4 °F 94% 29.90 in 3.0 mi Calm Calm - N/A   Overcast
8:55 AM 57.9 °F 57.0 °F 97% 29.94 in 6.0 mi Calm Calm - N/A   Mostly Cloudy
9:06 AM 59.0 °F 57.2 °F 94% 29.91 in 7.0 mi Variable 3.5 mph - N/A   Scattered Clouds
9:55 AM 66.9 °F 57.9 °F 73% 29.94 in 10.0 mi Variable 3.5 mph - N/A   Partly Cloudy
10:55 AM 71.1 °F 57.9 °F 63% 29.94 in 10.0 mi SSW 3.5 mph - N/A   Clear
11:55 AM 73.0 °F 57.9 °F 59% 29.94 in 10.0 mi West 9.2 mph - N/A   Clear
12:55 PM 75.0 °F 57.0 °F 53% 29.92 in 10.0 mi West 8.1 mph - N/A   Clear
1:55 PM 77.0 °F 57.9 °F 52% 29.91 in 10.0 mi West 9.2 mph - N/A   Clear
2:55 PM 77.0 °F 57.0 °F 50% 29.89 in 10.0 mi SW 6.9 mph - N/A   Clear
3:55 PM 77.0 °F 57.9 °F 52% 29.88 in 10.0 mi WSW 8.1 mph - N/A   Clear
4:55 PM 75.0 °F 59.0 °F 57% 29.87 in 10.0 mi West 6.9 mph - N/A   Clear
5:55 PM 73.0 °F 59.0 °F 61% 29.87 in 10.0 mi WSW 4.6 mph - N/A   Clear
6:55 PM 70.0 °F 59.0 °F 68% 29.87 in 10.0 mi SW 3.5 mph - N/A   Clear
7:55 PM 66.9 °F 59.0 °F 76% 29.89 in 10.0 mi WSW 4.6 mph - N/A   Clear
8:55 PM 66.0 °F 59.0 °F 78% 29.91 in 10.0 mi SW 3.5 mph - N/A   Clear
9:55 PM 64.9 °F 59.0 °F 81% 29.94 in 10.0 mi Calm Calm - N/A   Clear
10:55 PM 64.9 °F 59.0 °F 81% 29.94 in 10.0 mi Calm Calm - N/A   Clear
11:55 PM 63.0 °F 57.9 °F 84% 29.94 in 10.0 mi Calm Calm - N/A   Clear